Погода в Карауылкелды

Казахстан     48°41′51″N   55°53′02″E
темп.,
°C
ветер,
м/с
пор.,
м/с
влажн.,
%
обл.,
%
осадки,
мм/ч
давл.,
гПа
погр.,
м
14 августа, вс
вс1423:00+27ссв47220 0.0 1014113
02:00+24ссв47300 0.0 1015118
05:00+22ссв33340 0.0 101443
08:00+25с34320 0.0 1014166
11:00+31с44240 0.0 10131038
14:00+34с44170 0.0 10122392
17:00+35с44140 0.0 10102895
20:00+33с57180 0.0 1010214
15 августа, пн
пн1523:00+28ссв914320 0.0 1011576
02:00+26св812370 0.0 1011502
05:00+24св712380 0.0 1010350
08:00+25всв1013320 0.0 1012533
11:00+30в910230 0.0 10121086
14:00+36в77150 0.0 10113291
17:00+36в77130 0.0 10103786
20:00+32всв1114190 0.0 1011897
16 августа, вт
вт1623:00+27в1217250 0.0 1014797
02:00+25в1017240 0.0 1015673
05:00+23в916240 0.0 1017543
08:00+23в914260 0.0 1018545
11:00+28вюв910190 0.0 10181041
14:00+32вюв77170 0.0 10181919
17:00+32вюв65170 0.0 10172297
20:00+30в68190 0.0 1018314
17 августа, ср
ср1723:00+26в714215 0.0 1018389
02:00+23вюв513245 0.0 1019338
05:00+21вюв410290 0.0 1020199
08:00+23юв59275 0.0 1021334
11:00+28юв66193 0.0 10201489
14:00+31вюв54165 0.0 10192032
17:00+32вюв321672 0.0 10182533
20:00+29всв451898 0.0 1018108
18 августа, чт
чт1823:00+26в482279 0.0 1018146
02:00+26юв482275 0.0 1017210
05:00+25вюв2422100 0.0 101795
08:00+26сз1221100 0.0 1018150
11:00+28в332387 0.0 1018758
14:00+31св122093 0.0 10173151
17:00+31ссз222031 0.0 10163131
20:00+29зсз34225 0.0 101668